| time (UTC) | temp F | wind direction | speed MPH | gust MPH | rain 1hr in | rain 24hr in | rain mn in | humidity % | barometer mb |
| 20260510220015 | 86 | 197 | 4.0 | 9.0 | 0.00 | 0.00 | 0.00 | 64 | 1007.6 |
| 20260510214514 | 86 | 206 | 3.0 | 11.0 | 0.00 | 0.00 | 0.00 | 65 | 1007.6 |
| 20260510213013 | 86 | 64 | 2.0 | 8.0 | 0.00 | 0.00 | 0.00 | 66 | 1007.8 |
| 20260510211512 | 86 | 201 | 4.0 | 10.0 | 0.00 | 0.00 | 0.00 | 66 | 1007.9 |
| 20260510210013 | 86 | 202 | 5.0 | 14.0 | 0.00 | 0.00 | 0.00 | 66 | 1008.0 |
| 20260510204517 | 86 | 155 | 4.0 | 11.0 | 0.00 | 0.00 | 0.00 | 67 | 1008.0 |
| 20260510203007 | 85 | 202 | 3.0 | 11.0 | 0.00 | 0.00 | 0.00 | 68 | 1008.1 |
| 20260510201506 | 85 | 136 | 5.0 | 10.0 | 0.00 | 0.00 | 0.00 | 69 | 1008.2 |
| 20260510200006 | 85 | 209 | 5.0 | 10.0 | 0.00 | 0.00 | 0.00 | 69 | 1008.3 |
| 20260510194504 | 85 | 185 | 4.0 | 11.0 | 0.00 | 0.00 | 0.00 | 70 | 1008.6 |
| 20260510193002 | 84 | 134 | 4.0 | 10.0 | 0.00 | 0.00 | 0.00 | 71 | 1008.6 |
| 20260510191503 | 84 | 147 | 4.0 | 14.0 | 0.00 | 0.00 | 0.00 | 72 | 1008.8 |
| 20260510184557 | 83 | 144 | 6.0 | 10.0 | 0.00 | 0.00 | 0.00 | 74 | 1008.9 |
| 20260510183055 | 82 | 141 | 4.0 | 11.0 | 0.00 | 0.00 | 0.00 | 75 | 1009.0 |
| 20260510181554 | 82 | 139 | 4.0 | 10.0 | 0.00 | 0.00 | 0.00 | 76 | 1009.3 |
| 20260510180103 | 81 | 65 | 3.0 | 15.0 | 0.00 | 0.00 | 0.00 | 78 | 1009.6 |
| 20260510174548 | 81 | 182 | 3.0 | 10.0 | 0.00 | 0.00 | 0.00 | 78 | 1009.8 |
| 20260510173047 | 80 | 229 | 2.0 | 14.0 | 0.00 | 0.00 | 0.00 | 79 | 1010.1 |
| 20260510171547 | 80 | 153 | 4.0 | 14.0 | 0.00 | 0.00 | 0.00 | 80 | 1010.2 |
| 20260510170047 | 79 | 169 | 4.0 | 10.0 | 0.00 | 0.00 | 0.00 | 80 | 1010.3 |
| 20260510164550 | 79 | 107 | 4.0 | 9.0 | 0.00 | 0.00 | 0.00 | 81 | 1010.3 |
| 20260510163051 | 79 | 130 | 3.0 | 10.0 | 0.00 | 0.00 | 0.00 | 81 | 1010.3 |
| 20260510161554 | 78 | 144 | 4.0 | 8.0 | 0.00 | 0.00 | 0.00 | 82 | 1010.2 |
| 20260510160052 | 78 | 82 | 3.0 | 8.0 | 0.00 | 0.00 | 0.00 | 82 | 1010.2 |
| 20260510154535 | 77 | 194 | 4.0 | 10.0 | 0.00 | 0.00 | 0.00 | 83 | 1010.3 |
| 20260510153037 | 77 | 53 | 3.0 | 9.0 | 0.00 | 0.00 | 0.00 | 83 | 1010.2 |
| 20260510151529 | 76 | 177 | 2.0 | 7.0 | 0.00 | 0.00 | 0.00 | 84 | 1010.1 |
| 20260510150026 | 75 | 204 | 1.0 | 7.0 | 0.00 | 0.00 | 0.00 | 84 | 1009.9 |
| 20260510144533 | 74 | 142 | 2.0 | 6.0 | 0.00 | 0.00 | 0.00 | 85 | 1009.8 |
| 20260510143027 | 74 | 76 | 2.0 | 7.0 | 0.00 | 0.00 | 0.00 | 85 | 1009.6 |
| 20260510141531 | 73 | 174 | 4.0 | 7.0 | 0.00 | 0.00 | 0.00 | 85 | 1009.4 |
| 20260510140019 | 72 | 178 | 1.0 | 5.0 | 0.00 | 0.00 | 0.00 | 85 | 1009.1 |
| 20260510134514 | 72 | 175 | 1.0 | 7.0 | 0.00 | 0.00 | 0.00 | 85 | 1009.0 |
| 20260510133012 | 71 | 190 | 2.0 | 7.0 | 0.00 | 0.00 | 0.00 | 85 | 1008.7 |
| 20260510131510 | 70 | 195 | 2.0 | 4.0 | 0.00 | 0.00 | 0.00 | 85 | 1008.4 |
| 20260510130009 | 69 | 188 | 0.0 | 3.0 | 0.00 | 0.00 | 0.00 | 85 | 1008.3 |
| 20260510124506 | 67 | 188 | 0.0 | 0.0 | 0.00 | 0.00 | 0.00 | 84 | 1008.1 |
| 20260510123004 | 66 | 188 | 0.0 | 1.0 | 0.00 | 0.00 | 0.00 | 83 | 1007.8 |
| 20260510121502 | 66 | 188 | 0.0 | 0.0 | 0.00 | 0.00 | 0.00 | 83 | 1007.7 |
| 20260510120000 | 66 | 190 | 0.0 | 0.0 | 0.00 | 0.00 | 0.00 | 82 | 1007.6 |
| 20260510114559 | 66 | 190 | 0.0 | 0.0 | 0.00 | 0.01 | 0.00 | 82 | 1007.4 |
| 20260510113111 | 67 | 190 | 0.0 | 0.0 | 0.00 | 0.01 | 0.00 | 82 | 1007.3 |
| 20260510111559 | 67 | 190 | 0.0 | 1.0 | 0.00 | 0.01 | 0.00 | 83 | 1007.3 |
| 20260510110058 | 67 | 190 | 0.0 | 1.0 | 0.00 | 0.01 | 0.00 | 82 | 1007.0 |
| 20260510104559 | 68 | 190 | 0.0 | 1.0 | 0.00 | 0.01 | 0.00 | 82 | 1007.0 |
| 20260510103052 | 68 | 190 | 0.0 | 1.0 | 0.00 | 0.01 | 0.00 | 82 | 1007.0 |
| 20260510101550 | 69 | 190 | 1.0 | 5.0 | 0.00 | 0.01 | 0.00 | 83 | 1006.9 |
| 20260510100049 | 69 | 165 | 3.0 | 6.0 | 0.00 | 0.01 | 0.00 | 82 | 1007.1 |
| 20260510094549 | 69 | 184 | 2.0 | 5.0 | 0.00 | 0.03 | 0.00 | 82 | 1007.1 |
| 20260510093101 | 69 | 183 | 2.0 | 5.0 | 0.00 | 0.03 | 0.00 | 81 | 1007.1 |
| 20260510091546 | 68 | 178 | 0.0 | 0.0 | 0.00 | 0.03 | 0.00 | 78 | 1007.1 |
| 20260510090050 | 69 | 178 | 0.0 | 0.0 | 0.00 | 0.03 | 0.00 | 78 | 1006.9 |
| 20260510084549 | 69 | 178 | 0.0 | 0.0 | 0.00 | 0.03 | 0.00 | 78 | 1007.0 |
| 20260510083047 | 70 | 178 | 0.0 | 0.0 | 0.00 | 0.03 | 0.00 | 78 | 1007.0 |
| 20260510081556 | 70 | 178 | 0.0 | 3.0 | 0.00 | 0.03 | 0.00 | 78 | 1006.9 |
| 20260510080039 | 71 | 178 | 1.0 | 3.0 | 0.00 | 0.03 | 0.00 | 79 | 1007.0 |
| 20260510074537 | 71 | 178 | 0.0 | 2.0 | 0.00 | 0.03 | 0.00 | 77 | 1007.2 |
| 20260510073050 | 71 | 178 | 1.0 | 4.0 | 0.00 | 0.03 | 0.00 | 78 | 1007.1 |
| 20260510071536 | 72 | 178 | 2.0 | 4.0 | 0.00 | 0.03 | 0.00 | 77 | 1007.2 |
| 20260510070037 | 72 | 178 | 1.0 | 3.0 | 0.00 | 0.03 | 0.00 | 76 | 1007.1 |
| 20260510064545 | 72 | 178 | 1.0 | 4.0 | 0.00 | 0.03 | 0.00 | 76 | 1007.0 |
| 20260510063039 | 72 | 171 | 1.0 | 3.0 | 0.00 | 0.03 | 0.00 | 75 | 1006.9 |
| 20260510061532 | 73 | 181 | 1.0 | 4.0 | 0.00 | 0.03 | 0.00 | 74 | 1006.9 |
| 20260510060039 | 73 | 181 | 1.0 | 2.0 | 0.00 | 0.03 | 0.00 | 74 | 1006.9 |
| 20260510054526 | 73 | 181 | 0.0 | 4.0 | 0.00 | 0.03 | 0.00 | 73 | 1006.9 |
| 20260510053035 | 74 | 172 | 0.0 | 7.0 | 0.00 | 0.03 | 0.00 | 72 | 1006.9 |
| 20260510051522 | 74 | 178 | 1.0 | 4.0 | 0.00 | 0.03 | 0.00 | 71 | 1006.9 |
| 20260510050014 | 74 | 178 | 0.0 | 2.0 | 0.00 | 0.03 | 0.00 | 70 | 1006.9 |
| 20260510044532 | 75 | 178 | 0.0 | 1.0 | 0.00 | 0.03 | 0.03 | 69 | 1006.8 |
| 20260510043014 | 75 | 178 | 0.0 | 0.0 | 0.00 | 0.03 | 0.03 | 68 | 1006.7 |
| 20260510041513 | 76 | 178 | 0.0 | 2.0 | 0.00 | 0.03 | 0.03 | 68 | 1006.7 |
| 20260510040021 | 76 | 178 | 1.0 | 3.0 | 0.00 | 0.03 | 0.03 | 68 | 1006.6 |
| 20260510034512 | 75 | 178 | 0.0 | 2.0 | 0.00 | 0.03 | 0.03 | 65 | 1006.6 |
| 20260510033012 | 76 | 178 | 0.0 | 0.0 | 0.00 | 0.03 | 0.03 | 64 | 1006.4 |
| 20260510031510 | 76 | 178 | 0.0 | 0.0 | 0.00 | 0.03 | 0.03 | 64 | 1006.3 |
| 20260510030011 | 77 | 178 | 0.0 | 2.0 | 0.00 | 0.03 | 0.03 | 63 | 1006.0 |
| 20260510024509 | 77 | 178 | 0.0 | 2.0 | 0.00 | 0.03 | 0.03 | 62 | 1005.8 |
| 20260510023008 | 77 | 178 | 0.0 | 1.0 | 0.00 | 0.03 | 0.03 | 61 | 1005.7 |
| 20260510021508 | 78 | 178 | 0.0 | 1.0 | 0.00 | 0.03 | 0.03 | 61 | 1005.6 |
| 20260510020010 | 79 | 178 | 0.0 | 2.0 | 0.00 | 0.03 | 0.03 | 60 | 1005.4 |
| 20260510014506 | 80 | 178 | 0.0 | 0.0 | 0.00 | 0.03 | 0.03 | 59 | 1005.3 |
| 20260510013008 | 81 | 178 | 0.0 | 0.0 | 0.00 | 0.03 | 0.03 | 59 | 1005.1 |
| 20260510011505 | 81 | 178 | 0.0 | 1.0 | 0.00 | 0.03 | 0.03 | 59 | 1004.9 |
| 20260510010005 | 82 | 178 | 0.0 | 2.0 | 0.00 | 0.03 | 0.03 | 60 | 1004.9 |
| 20260510004503 | 83 | 178 | 0.0 | 3.0 | 0.00 | 0.03 | 0.03 | 59 | 1004.8 |
| 20260510003004 | 83 | 194 | 2.0 | 6.0 | 0.00 | 0.03 | 0.03 | 59 | 1004.8 |
| 20260510001502 | 84 | 125 | 1.0 | 5.0 | 0.00 | 0.03 | 0.03 | 58 | 1004.5 |
| 20260510000002 | 84 | 164 | 2.0 | 7.0 | 0.00 | 0.03 | 0.03 | 58 | 1004.4 |
| 20260509234501 | 84 | 201 | 1.0 | 8.0 | 0.00 | 0.03 | 0.03 | 57 | 1004.2 |
| 20260509233106 | 85 | 112 | 1.0 | 5.0 | 0.00 | 0.03 | 0.03 | 58 | 1004.1 |
| 20260509231601 | 85 | 186 | 2.0 | 9.0 | 0.00 | 0.03 | 0.03 | 59 | 1004.0 |
| 20260509230100 | 85 | 146 | 3.0 | 7.0 | 0.00 | 0.03 | 0.03 | 59 | 1004.0 |
| 20260509224600 | 85 | 204 | 3.0 | 8.0 | 0.00 | 0.03 | 0.03 | 60 | 1004.0 |
| 20260509223101 | 85 | 192 | 4.0 | 16.0 | 0.00 | 0.03 | 0.03 | 62 | 1004.0 |
| 20260509221556 | 84 | 171 | 1.0 | 3.0 | 0.00 | 0.03 | 0.03 | 67 | 1003.9 |